This is the latest recevied weather packets stored in our database for station/object K6GMW. If no packets are shown the sender has not sent any weather packets the latest 10 day(s).
| Time | Temp. | Humidity | Pressure | Rain* | Wind** | Luminosity | Snow |
|---|---|---|---|---|---|---|---|
| 1788198109 | 35.56° C | 45% | 1018.3 hPa | 0 mm | - | 860 W/m² | - |
| 1788197807 | 34.44° C | 47% | 1018.5 hPa | 0 mm | - | 1009 W/m² | - |
| 1788197504 | 34.44° C | 45% | 1018.5 hPa | 0 mm | - | 233 W/m² | - |
| 1788197203 | 35° C | 45% | 1018.9 hPa | 0 mm | - | 279 W/m² | - |
| 1788196898 | 34.44° C | 46% | 1018.9 hPa | 0 mm | - | 987 W/m² | - |
| 1788196593 | 33.89° C | 46% | 1018.6 hPa | 0 mm | - | 366 W/m² | - |
| 1788196291 | 34.44° C | 45% | 1018.6 hPa | 0 mm | - | 245 W/m² | - |
| 1788195986 | 35° C | 44% | 1019 hPa | 0 mm | - | 931 W/m² | - |
| 1788195684 | 35° C | 45% | 1019 hPa | 0 mm | - | 857 W/m² | - |
| 1788195379 | 35° C | 45% | 1019.2 hPa | 0 mm | - | 871 W/m² | - |
| 1788195076 | 34.44° C | 45% | 1019.4 hPa | 0 mm | - | 857 W/m² | - |
| 1788194771 | 35° C | 47% | 1019.2 hPa | 0 mm | - | 823 W/m² | - |
| 1788194466 | 34.44° C | 46% | 1019.3 hPa | 0 mm | - | 815 W/m² | - |
| 1788194161 | 34.44° C | 45% | 1019.4 hPa | 0 mm | - | 814 W/m² | - |
| 1788193857 | 34.44° C | 46% | 1019.5 hPa | 0 mm | - | 813 W/m² | - |
| 1788193556 | 33.89° C | 48% | 1019.5 hPa | 0 mm | - | 801 W/m² | - |
| 1788193254 | 34.44° C | 46% | 1019.5 hPa | 0 mm | - | 785 W/m² | - |
| 1788192950 | 34.44° C | 46% | 1019.5 hPa | 0 mm | - | 773 W/m² | - |
| 1788192647 | 34.44° C | 47% | 1019.6 hPa | 0 mm | - | 769 W/m² | - |
| 1788192345 | 33.89° C | 48% | 1019.6 hPa | 0 mm | - | 756 W/m² | - |
| 1788192041 | 33.89° C | 48% | 1019.7 hPa | 0 mm | - | 745 W/m² | - |
| 1788191735 | 33.33° C | 48% | 1019.5 hPa | 0 mm | - | 734 W/m² | - |
| 1788191431 | 33.33° C | 49% | 1019.3 hPa | 0 mm | - | 718 W/m² | - |
| 1788191137 | 32.78° C | 49% | 1019.5 hPa | 0 mm | - | 702 W/m² | - |
| 1788190826 | 32.78° C | 50% | 1019.4 hPa | 0 mm | - | 689 W/m² | - |
* Rain latest hour (hover to see other rain measurements)
** Current wind speed in m/s (hover to see current wind gust speed)